Regional Weather Roundup
Issued by NWS

Home | Current Version | Previous Version | Graphics & Text | Print | Product List | Glossary On
Versions: 1 2 3 4 5 6 7 8 9 10 11 12 13 14 15 16 17 18 19 20 21 22 23 24 25 26 27 28 29 30 31 32 33 34 35 36 37 38 39 40 41 42 43 44 45 46 47 48 49 50
000
ASUS45 KPSR 211910
RWRAZ

ARIZONA REGIONAL HOURLY WEATHER ROUNDUP
NATIONAL WEATHER SERVICE PHOENIX AZ
1200 PM MST TUE OCT 21 2014

NOTE: FAIR INDICATES FEW OR NO CLOUDS BELOW 12,000 FEET WITH NO
SIGNIFICANT WEATHER AND/OR OBSTRUCTIONS TO VISIBILITY.

AZZ001>003-036-212000-
NORTHWEST ARIZONA

CITY           SKY/WX    TMP DP  RH WIND       PRES   REMARKS
BULLHEAD CITY  SUNNY     86  46  25 SW8       29.84F
KINGMAN        SUNNY     79  43  27 S13       29.97F
$$

AZZ004>008-015-016-018-212000-
NORTH CENTRAL ARIZONA

CITY           SKY/WX    TMP DP  RH WIND       PRES   REMARKS
GRAND CANYON   SUNNY     64  35  34 SW13G21   30.15F
PRESCOTT       MOSUNNY   71  42  35 E7        30.06F
FLAGSTAFF      SUNNY     62  36  37 SW8       30.16F
PAYSON         SUNNY     68  46  45 VRB5      30.11F
$$

AZZ009>014-017-212000-
NORTHEAST ARIZONA

CITY           SKY/WX    TMP DP  RH WIND       PRES   REMARKS
WINSLOW        SUNNY     72  43  35 VRB5      30.07F
SAINT JOHNS    SUNNY     66  43  43 VRB5      30.11F
SHOW LOW       MOSUNNY   64  41  42 W8        30.16F
$$

AZZ023-212000-
GREATER PHOENIX AREA

CITY           SKY/WX    TMP DP  RH WIND       PRES   REMARKS
PHOENIX        PTSUNNY   86  52  30 E9        29.87F
BUCKEYE          N/A     82  52  34 E12       29.86F
GLENDALE       MOSUNNY   84  52  32 E8        29.88F
LUKE AFB       MOSUNNY   84  52  33 SE12      29.86F
DEER VALLEY    MOSUNNY   83  49  30 SE8       29.87F
SCOTTSDALE     MOSUNNY   85  49  28 SE8       29.90F
MESA-FALCON    PTSUNNY   84  50  30 SE12      29.89
MESA-GATEWAY   MOSUNNY   84  52  32 SE8       29.90F
CHANDLER       PTSUNNY   84  54  34 NE10      29.88F
$$

AZZ027-028-212000-
SOUTHWEST MARICOPA COUNTY AND PINAL COUNTY

CITY           SKY/WX    TMP DP  RH WIND       PRES   REMARKS
CASA GRANDE    SUNNY     82  50  32 E3        29.89F
GILA BEND      CLEAR     88  48  25 S1        29.86F
$$

AZZ503-504-507>509-212000-
SOUTHEAST ARIZONA

CITY           SKY/WX    TMP DP  RH WIND       PRES   REMARKS
TUCSON         SUNNY     81  46  29 SE8       29.96F
DAVIS-MONTHAN  SUNNY     80  46  29 E5        29.94F
RYAN FIELD       N/A     82  48  30 E7        29.95F
SIERRA VISTA   MOSUNNY   72  45  37 E7        30.05F
DOUGLAS        SUNNY     73  47  39 SE8       30.03F
SAFFORD        PTSUNNY   74  51  44 S10G17    30.01F
$$

AZZ020-021-025-026-031-212000-
SOUTHWEST ARIZONA

CITY           SKY/WX    TMP DP  RH WIND       PRES   REMARKS
YUMA           MOSUNNY   90  56  31 VRB3      29.81F
$$

CAZ031-033-041-043-047-048-061-212000-
SOUTHERN CALIFORNIA

CITY           SKY/WX    TMP DP  RH WIND       PRES   REMARKS
DOWNTOWN L.A.  SUNNY     77  56  48 CALM      29.90F
L.A. AIRPORT   MOSUNNY   72  60  66 W10       29.91F
SAN DIEGO      MOSUNNY   74  60  61 W7        29.91F
BURBANK        SUNNY     76  47  35 MISG      29.90F
ONTARIO        MOSUNNY   70  59  68 VRB3      29.91F HAZE
RIVERSIDE      SUNNY     71  59  65 SW5       29.91F HAZE
PALM SPRINGS   SUNNY     89  43  20 CALM      29.83F
EL CENTRO NAS  MOSUNNY   90  48  23 CALM      29.80F
IMPERIAL       SUNNY     87  50  27 E3        29.80F
BLYTHE         SUNNY     86  51  29 CALM      29.83F
NEEDLES        SUNNY     89  46  22 SE10      29.83F
$$

NVZ020-UTZ003-212000-
SOUTHERN NEVADA-UTAH

CITY           SKY/WX    TMP DP  RH WIND       PRES   REMARKS
LAS VEGAS      MOSUNNY   83  33  16 S15       29.84F
SALT LAKE CITY CLOUDY    61  36  39 NW23      30.01R
$$

NMZ009-TXZ055-212000-
NEW MEXICO-WEST TEXAS

CITY           SKY/WX    TMP DP  RH WIND       PRES   REMARKS
ALBUQUERQUE    PTSUNNY   65  46  50 CALM      30.15F
EL PASO        MOSUNNY   69  54  58 VRB3      30.06F
$$


........................KEY........................
SKY/WX - SKY CONDITION/WEATHER
TMP    - TEMPERATURE IN FAHRENHEIT
DP     - DEW POINT IN FAHRENHEIT
RH     - RELATIVE HUMIDITY IN PERCENT
WIND   - DIRECTION AND SPEED IN MILES PER HOUR (MPH)
VRB    - VARIABLE WIND DIRECTION
PRES   - MEAN SEA LEVEL PRESSURE IN INCHES OF MERCURY
         F - FALLING PRESSURE   R - RISING PRESSURE
         S - STEADY PRESSURE
VSB    - VISIBILITY IN MILES
HX     - HEAT INDEX IN FAHRENHEIT
WCI    - WIND CHILL INDEX IN FAHRENHEIT
TC     - TEMPERATURE IN CELSIUS WHICH IS ALSO KNOWN AS
         TEMPERATURE IN CENTIGRADE
AFB    - AIR FORCE BASE
         LUKE AFB IS LUKE AIR FORCE BASE
         DAVIS-MONTHAN IS DAVIS-MONTHAN AIR FORCE BASE
NAS    - NAVAL AIR STATION
         EL CENTRO NAS IS EL CENTRO NAVAL AIR STATION
N/A    - NOT AVAILABLE



USA.gov is the U.S. government's official web portal to all federal, state and local government web resources and services.